DW5542 Weather Reports


Display with metric or nautical units.
time (UTC)temp
F
wind
direction
speed
MPH
gust
MPH
rain 1hr
in
rain 24hr
in
rain mn
in
humidity
%
barometer
mb
20260906220006 80 25 0.0 0.0 0.00 0.00 0.00 40 1018.5
20260906214505 80 25 0.0 0.0 0.00 0.00 0.00 41 1018.6
20260906213010 80 6 0.0 0.0 0.00 0.00 0.00 43 1018.6
20260906211502 80 10 0.0 0.0 0.00 0.00 0.00 44 1018.7
20260906210001 81 13 0.0 0.0 0.00 0.00 0.00 45 1018.6
20260906204501 81 41 0.0 0.0 0.00 0.00 0.00 46 1018.7
20260906203113 82 31 0.0 0.0 0.00 0.00 0.00 48 1018.6
20260906201605 82 36 0.0 0.0 0.00 0.00 0.00 48 1018.7
20260906200059 82 7 0.0 0.0 0.00 0.00 0.00 49 1018.4
20260906194618 84 330 0.0 0.0 0.00 0.00 0.00 48 1018.3
20260906193109 85 148 0.0 0.0 0.00 0.00 0.00 48 1018.0
20260906191604 85 148 0.0 0.0 0.00 0.00 0.00 46 1017.8
20260906190057 86 165 0.0 2.0 0.00 0.00 0.00 45 1017.6
20260906184556 86 134 0.0 0.0 0.00 0.00 0.00 45 1017.5
20260906183057 87 168 0.0 0.0 0.00 0.00 0.00 45 1017.5
20260906181631 87 167 0.0 0.0 0.00 0.00 0.00 44 1017.4
20260906180056 88 211 0.0 0.0 0.00 0.00 0.00 44 1017.7
20260906174554 87 207 0.0 0.0 0.00 0.00 0.00 45 1017.7
20260906173052 88 228 0.0 0.0 0.00 0.00 0.00 43 1017.4
20260906171605 88 193 0.0 0.0 0.00 0.00 0.00 44 1017.4
20260906170106 90 104 0.0 0.0 0.00 0.00 0.00 42 1017.2
20260906164550 92 253 0.0 0.0 0.00 0.00 0.00 40 1017.2
20260906163056 92 228 0.0 0.0 0.00 0.00 0.00 40 1017.3
20260906161549 92 143 0.0 0.0 0.00 0.00 0.00 42 1017.2
20260906160049 91 261 0.0 0.0 0.00 0.00 0.00 43 1017.2
20260906154547 91 231 0.0 0.0 0.00 0.00 0.00 46 1017.3
20260906153046 91 168 0.0 0.0 0.00 0.00 0.00 46 1017.2
20260906151551 90 129 0.0 6.0 0.00 0.00 0.00 48 1017.1
20260906150048 91 159 1.0 8.0 0.00 0.00 0.00 46 1017.1
20260906144604 91 217 0.0 8.0 0.00 0.00 0.00 46 1017.1
20260906143043 90 170 0.0 8.0 0.00 0.00 0.00 49 1017.2
20260906141541 90 242 0.0 7.0 0.00 0.00 0.00 47 1017.3
20260906140042 91 240 2.0 9.0 0.00 0.00 0.00 42 1017.3
20260906134539 91 232 0.0 7.0 0.00 0.00 0.00 40 1017.3
20260906133036 91 148 0.0 5.0 0.00 0.00 0.00 45 1017.3
20260906131538 90 165 0.0 7.0 0.00 0.00 0.00 45 1017.6
20260906130033 91 150 0.0 5.0 0.00 0.00 0.00 39 1017.6
20260906124533 92 158 1.0 7.0 0.00 0.00 0.00 39 1017.7
20260906123032 94 204 0.0 1.0 0.00 0.00 0.00 33 1017.8
20260906121529 95 166 0.0 6.0 0.00 0.00 0.00 29 1017.8
20260906120028 95 160 0.0 4.0 0.00 0.00 0.00 30 1017.8
20260906114542 96 201 0.0 6.0 0.00 0.00 0.00 29 1018.0
20260906113023 96 162 0.0 5.0 0.00 0.00 0.00 28 1017.9
20260906111518 96 165 0.0 0.0 0.00 0.00 0.00 31 1018.1
20260906110013 95 230 0.0 0.0 0.00 0.00 0.00 32 1018.2
20260906104511 94 201 0.0 0.0 0.00 0.00 0.00 31 1018.4
20260906103006 94 169 0.0 0.0 0.00 0.00 0.00 30 1018.5
20260906101502 93 166 0.0 0.0 0.00 0.00 0.00 32 1018.7
20260906100058 92 239 0.0 0.0 0.00 0.00 0.00 32 1018.7
20260906094608 91 314 0.0 0.0 0.00 0.00 0.00 34 1018.8
20260906093119 90 202 0.0 0.0 0.00 0.00 0.00 37 1018.7
20260906091547 89 145 0.0 0.0 0.00 0.00 0.00 37 1018.8
20260906090043 88 328 0.0 0.0 0.00 0.00 0.00 39 1018.9
20260906084540 87 329 0.0 0.0 0.00 0.00 0.00 39 1018.8
20260906083046 86 328 0.0 0.0 0.00 0.00 0.00 40 1018.8
20260906081538 85 326 0.0 0.0 0.00 0.00 0.00 41 1018.7
20260906080039 84 326 0.0 0.0 0.00 0.00 0.00 45 1018.6
20260906074530 81 326 0.0 0.0 0.00 0.00 0.00 48 1018.5
20260906073026 78 326 0.0 0.0 0.00 0.00 0.00 51 1018.5
20260906071518 77 333 0.0 0.0 0.00 0.00 0.00 51 1018.5
20260906070017 75 333 0.0 0.0 0.00 0.00 0.00 52 1018.4
20260906064517 74 333 0.0 0.0 0.00 0.00 0.00 54 1018.5
20260906063018 72 335 0.0 0.0 0.00 0.00 0.00 56 1018.4
20260906061513 71 325 0.0 0.0 0.00 0.00 0.00 60 1018.3
20260906060011 71 16 0.0 0.0 0.00 0.00 0.00 61 1018.2
20260906054507 0 0.0 0.0 0.00 0.00 0.00 1018.1
20260906053002 0 0.0 0.0 0.00 0.00 0.00 1017.8
20260906051606 0 0.0 0.0 0.00 0.00 0.00 1017.8
20260906050103 0 0.0 0.0 0.00 0.00 0.00 1017.7
20260906044556 0 0.0 0.0 0.00 0.00 0.00 1017.7
20260906043045 0 0.0 0.0 0.00 0.00 0.00 1017.8
20260906041541 0 0.0 0.0 0.00 0.00 0.00 1017.9
20260906040036 0 0.0 0.0 0.00 0.00 0.00 1017.8
20260906034532 0 0.0 0.0 0.00 0.00 0.00 1017.8
20260906033038 0 0.0 0.0 0.00 0.00 0.00 1017.9
20260906031529 0 0.0 0.0 0.00 0.00 0.00 1017.9
20260906030021 72 6 0.0 0.0 0.00 0.00 0.00 62 1018.0
20260906024533 72 6 0.0 0.0 0.00 0.00 0.00 61 1017.9
20260906023022 72 6 0.0 0.0 0.00 0.00 0.00 61 1017.9
20260906021517 73 6 0.0 0.0 0.00 0.00 0.00 59 1018.1
20260906020014 73 6 0.0 0.0 0.00 0.00 0.00 61 1018.2
20260906014517 73 6 0.0 0.0 0.00 0.00 0.00 60 1018.4
20260906013032 73 6 0.0 0.0 0.00 0.00 0.00 60 1018.4
20260906011509 73 6 0.0 0.0 0.00 0.00 0.00 61 1018.4
20260906010007 74 6 0.0 0.0 0.00 0.00 0.00 61 1018.5
20260906004506 74 6 0.0 0.0 0.00 0.00 0.00 60 1018.5
20260906003004 74 6 0.0 0.0 0.00 0.00 0.00 62 1018.5
20260906001503 74 6 0.0 0.0 0.00 0.00 0.00 63 1018.5
20260906000101 75 6 0.0 0.0 0.00 0.00 0.00 63 1018.5
20260905234610 75 6 0.0 0.0 0.00 0.00 0.00 62 1018.7
20260905233059 75 6 0.0 0.0 0.00 0.00 0.00 58 1018.7
20260905231557 75 6 0.0 0.0 0.00 0.00 0.00 59 1018.7
20260905230054 75 8 0.0 0.0 0.00 0.00 0.00 60 1018.8
20260905224600 75 8 0.0 0.0 0.00 0.00 0.00 61 1018.9
20260905223051 76 8 0.0 0.0 0.00 0.00 0.00 62 1018.9
20260905221608 76 6 0.0 0.0 0.00 0.00 0.00 62 1018.9